Cleveland, Oklahoma, United States (74020)
Lat: 36.31N, Lon: 96.46W
Wx Zone: OKZ059
Local Info
Past Weather Observations for Today

NOTE: This archive is for the closest National Weather Service station to Cleveland. Information may differ from the station used for current weather conditions.

Click here for Long-term Archive

Time Weather Temperature Dewpoint Humidity Pressure Winds Precip Visibility
22:35
Fair
73°F / 23°C 70°F / 21°C 89% 29.95 in
(1014 mb)
Calm -
22:15
Clear
73°F / 23°C 70°F / 21°C 89% 29.95 in
(1014 mb)
Calm -
21:55
Fair
73°F / 23°C 70°F / 21°C 89% 29.95 in
(1014 mb)
Calm -
21:35
Clear
75°F / 24°C 70°F / 21°C 83% 29.95 in
(1014 mb)
Calm -
21:15
Clear
77°F / 25°C 70°F / 21°C 79% 29.95 in
(1014 mb)
Calm -
20:55
Clear
77°F / 25°C 70°F / 21°C 79% 29.92 in
(1013 mb)
ENE 3.5 mph
(ENE 6 kph)
-
20:35
Clear
75°F / 24°C 68°F / 20°C 78% 29.92 in
(1013 mb)
Calm -
20:15
Clear
79°F / 26°C 68°F / 20°C 70% 29.92 in
(1013 mb)
Calm -
19:55
Clear
79°F / 26°C 68°F / 20°C 70% 29.89 in
(1012 mb)
Calm -
19:35
Clear
81°F / 27°C 70°F / 21°C 70% 29.89 in
(1012 mb)
Calm -
19:15
Clear
82°F / 28°C 70°F / 21°C 66% 29.89 in
(1012 mb)
Calm -
18:55
Clear
84°F / 29°C 70°F / 21°C 62% 29.89 in
(1012 mb)
N 5.8 mph
(N 9 kph)
-
18:35
Clear
86°F / 30°C 68°F / 20°C 55% 29.89 in
(1012 mb)
N 6.9 mph
(N 11 kph)
-
18:15
Clear
86°F / 30°C 70°F / 21°C 59% 29.89 in
(1012 mb)
NNE 8.1 mph
(NNE 13 kph)
-
17:55
Clear
88°F / 31°C 70°F / 21°C 55% 29.89 in
(1012 mb)
N 11.5 mph
(N 19 kph)
-
17:35
Clear
88°F / 31°C 68°F / 20°C 52% 29.89 in
(1012 mb)
N 8.1 mph
(N 13 kph)
-
17:15
Clear
90°F / 32°C 68°F / 20°C 49% 29.89 in
(1012 mb)
N 10.4 mph
(N 17 kph)
-
16:55
Clear
90°F / 32°C 68°F / 20°C 49% 29.89 in
(1012 mb)
N 6.9 mph
(N 11 kph)
-
16:35
Clear
91°F / 33°C 70°F / 21°C 49% 29.89 in
(1012 mb)
N 10.4 mph
(N 17 kph)
-
16:15
Clear
90°F / 32°C 70°F / 21°C 52% 29.89 in
(1012 mb)
NNW 4.6 mph
(NNW 7 kph)
-
15:55
Clear
90°F / 32°C 70°F / 21°C 52% 29.89 in
(1012 mb)
NNW 5.8 mph
(NNW 9 kph)
-
15:35
Clear
91°F / 33°C 72°F / 22°C 52% 29.89 in
(1012 mb)
NNW 5.8 mph
(NNW 9 kph)
-
15:15
Clear
91°F / 33°C 70°F / 21°C 49% 29.89 in
(1012 mb)
N 4.6 mph
(N 7 kph)
-
14:55
Clear
91°F / 33°C 70°F / 21°C 49% 29.89 in
(1012 mb)
NNW 5.8 mph
(NNW 9 kph)
-
14:35
Clear
91°F / 33°C 72°F / 22°C 52% 29.92 in
(1013 mb)
NNW 8.1 mph
(NNW 13 kph)
-
14:15
Clear
91°F / 33°C 72°F / 22°C 52% 29.92 in
(1013 mb)
NNW 4.6 mph
(NNW 7 kph)
-
13:55
Clear
91°F / 33°C 73°F / 23°C 56% 29.92 in
(1013 mb)
N 4.6 mph
(N 7 kph)
-
13:35
Partly Cloudy
90°F / 32°C 73°F / 23°C 59% 29.92 in
(1013 mb)
Calm -
13:15
Partly Cloudy
88°F / 31°C 73°F / 23°C 62% 29.92 in
(1013 mb)
N 3.5 mph
(N 6 kph)
-
12:55
Clear
90°F / 32°C 73°F / 23°C 59% 29.92 in
(1013 mb)
NW 5.8 mph
(NW 9 kph)
-
12:35
Partly Cloudy
90°F / 32°C 73°F / 23°C 59% 29.92 in
(1013 mb)
Calm -
12:15
Partly Cloudy
88°F / 31°C 75°F / 24°C 66% 29.95 in
(1014 mb)
N 4.6 mph
(N 7 kph)
-
11:55
Clear
88°F / 31°C 75°F / 24°C 66% 29.95 in
(1014 mb)
NNW 4.6 mph
(NNW 7 kph)
-
11:35
Clear
88°F / 31°C 77°F / 25°C 70% 29.95 in
(1014 mb)
NNW 5.8 mph
(NNW 9 kph)
-
11:15
Clear
86°F / 30°C 75°F / 24°C 70% 29.95 in
(1014 mb)
WNW 4.6 mph
(WNW 7 kph)
-
10:55
Clear
86°F / 30°C 75°F / 24°C 70% 29.95 in
(1014 mb)
NNW 4.6 mph
(NNW 7 kph)
-
10:35
Clear
82°F / 28°C 73°F / 23°C 74% 29.95 in
(1014 mb)
NW 8.1 mph
(NW 13 kph)
-
10:15
Clear
82°F / 28°C 73°F / 23°C 74% 29.95 in
(1014 mb)
WNW 4.6 mph
(WNW 7 kph)
-
09:55
Partly Cloudy
81°F / 27°C 75°F / 24°C 84% 29.95 in
(1014 mb)
NW 9.2 mph
(NW 15 kph)
-
09:35
Partly Cloudy
81°F / 27°C 75°F / 24°C 84% 29.95 in
(1014 mb)
NW 4.6 mph
(NW 7 kph)
-
09:15
Mostly Cloudy
79°F / 26°C 73°F / 23°C 84% 29.95 in
(1014 mb)
NW 6.9 mph
(NW 11 kph)
-
08:55
Mostly Cloudy
79°F / 26°C 73°F / 23°C 84% 29.95 in
(1014 mb)
WNW 6.9 mph
(WNW 11 kph)
-
08:35
Mostly Cloudy
77°F / 25°C 73°F / 23°C 89% 29.95 in
(1014 mb)
W 6.9 mph
(W 11 kph)
-
08:15
Fair
77°F / 25°C 73°F / 23°C 89% 29.95 in
(1014 mb)
W 8.1 mph
(W 13 kph)
-
07:55
Fair
75°F / 24°C 73°F / 23°C 94% 29.95 in
(1014 mb)
SSW 8.1 mph
(SSW 13 kph)
-
07:35
Fair
73°F / 23°C 72°F / 22°C 94% 29.95 in
(1014 mb)
W 6.9 mph
(W 11 kph)
-
07:15
Fair
73°F / 23°C 72°F / 22°C 94% 29.95 in
(1014 mb)
SSW 6.9 mph
(SSW 11 kph)
-
06:55
Fair
72°F / 22°C 72°F / 22°C 100% 29.95 in
(1014 mb)
SSW 9.2 mph
(SSW 15 kph)
-
06:35
Fair
72°F / 22°C 72°F / 22°C 100% 29.95 in
(1014 mb)
SSW 5.8 mph
(SSW 9 kph)
-
06:15
Fair
70°F / 21°C 70°F / 21°C 100% 29.95 in
(1014 mb)
W 4.6 mph
(W 7 kph)
-
05:55
Fair
68°F / 20°C 68°F / 20°C 100% 29.95 in
(1014 mb)
Calm -
05:35
Fair
68°F / 20°C 68°F / 20°C 100% 29.92 in
(1013 mb)
SW 3.5 mph
(SW 6 kph)
-
05:15
Fair
68°F / 20°C 68°F / 20°C 100% 29.92 in
(1013 mb)
Calm -
04:55
Fair
68°F / 20°C 68°F / 20°C 100% 29.92 in
(1013 mb)
Calm -
04:35
Fair
68°F / 20°C 68°F / 20°C 100% 29.92 in
(1013 mb)
Calm -
04:15
Fair
68°F / 20°C 68°F / 20°C 100% 29.92 in
(1013 mb)
Calm -
03:55
Fair
68°F / 20°C 68°F / 20°C 100% 29.92 in
(1013 mb)
SW 4.6 mph
(SW 7 kph)
-
03:35
Fair
68°F / 20°C 68°F / 20°C 100% 29.92 in
(1013 mb)
Calm -
03:15
Fair
68°F / 20°C 68°F / 20°C 100% 29.92 in
(1013 mb)
Calm -
02:55
Fair
70°F / 21°C 70°F / 21°C 100% 29.92 in
(1013 mb)
Calm -
02:35
Fair
70°F / 21°C 70°F / 21°C 100% 29.89 in
(1012 mb)
Calm -
02:15
Fair
70°F / 21°C 70°F / 21°C 100% 29.92 in
(1013 mb)
S 4.6 mph
(S 7 kph)
-
01:55
Fair
70°F / 21°C 70°F / 21°C 100% 29.92 in
(1013 mb)
S 8.1 mph
(S 13 kph)
-
01:35
Fair
70°F / 21°C 70°F / 21°C 100% 29.92 in
(1013 mb)
S 5.8 mph
(S 9 kph)
-
01:15
Overcast
70°F / 21°C 70°F / 21°C 100% 29.95 in
(1014 mb)
S 3.5 mph
(S 6 kph)
-
00:55
Mostly Cloudy
72°F / 22°C 72°F / 22°C 100% 29.95 in
(1014 mb)
SSE 3.5 mph
(SSE 6 kph)
-
00:35
Mostly Cloudy
72°F / 22°C 72°F / 22°C 100% 29.95 in
(1014 mb)
SSE 3.5 mph
(SSE 6 kph)
-
00:15
Fair
72°F / 22°C 72°F / 22°C 100% 29.95 in
(1014 mb)
Calm -
Time Weather Temperature Dewpoint Humidity Pressure Winds Precip Visibility


Weather for websites

WeatherForYou.com, LLC is not responsible for any damages or problems caused by this service. Current weather conditions are obtained from the closest station including government and personal stations which may have varying degrees of accuracy. Weather forecasts are derived from the NOAA NDFD. Like all things, this site belongs to Jesus Christ... He just trusts us to maintain it. If you have any questions or comments email webmaster@weatherforyou.com

Copyright © 2015, WeatherForYou.com LLC. All rights reserved.